STARLINK-34252, 64330

Orbit data source: Space-Track

STARLINK-34252, 64330 is a payload satellite owned by SpaceX/Seattle (US) in LEO that was launched on Tue, 10 Jun 2025 UTC via an FALCON 9 launch vehicle from the Air Force Eastern Test Range (AFETR). Payload-class satellites include a variety of spacecraft equipped with specific instruments for various scientific and technological missions. These include communications satellites like Starlink; space stations such as the ISS; scientific satellites like the Hubble; Earth observation satellites from companies like Planet Labs, Umbra, and HawkEye 360; GPS; miniature CubeSats for education and research; and military/defense satellites.

Loading next visibility...
Identifier
64330, 2025-124P
Orbit
LEO
Country
Flag of USUS
Related business
Manufacturer
SpaceX/Seattle
Mission
Operational Commercial Communications
Bus & Motor
STARLINK V2MO, Unknown motor
Mass
575 kg wet, ~530 kg dry
Launch date (UTC)
2025-06-10 (1 year ago)
Launch vehicle
FALCON 9
Launch site
Air Force Eastern Test Range (AFETR)
Object type
Payload
Rocket body
Debris
Shape & HBR
Box + 2 Pan, 17.7 m
Radar Cross Section
36.964 m², Large (>1 m²)

Expand to show TLE details & history
Last TLE update: 1 day ago

TLE from 1 day ago
0 STARLINK-34252
1 64330U 25124P   26170.72681143  .00024687  00000-0  90313-3 0  9994
2 64330  43.0018 265.6409 0001754 271.1947  88.8704 15.27598164 57380
Epoch: 2026-06-19T17:26Z
TLE epoch observation values (Epoch: 2026-06-19T17:26:36.507Z)
Latitude
-0°
Longitude
96.03714°
Altitude
482.747 km
Speed
7.626 km/s
True Right ascension
17h 42m 33s
True Declination
0° 00' 00"
Sunlit
Object was in full shadow at epoch
Visualization orbit readout
Latitude
Unknown
Longitude
Unknown
Altitude
Unknown
Speed
Unknown
Apparent Right ascension
Unknown
Apparent Declination
Unknown
Sunlit
N/A
Visualization observer readout
Local Sidereal Time
07:20:15
Azimuth
Unknown
Elevation
Unknown
Doppler factor
Unknown
Orbital elements
Apogee altitude
486.143 km
Perigee altitude
483.736 km
Semi-major axis
6,863.077 km
Eccentricity
0.00018
Inclination
43.0018°
RAAN
265.6409°
Arg. of periapsis
271.1947°
True anomaly
88.8905°
Mean anomaly
88.8704°
Eccentric anomaly
88.88045°
Mean motion
3.81738 °/min
Orbital period
94.31 mins
BSTAR
0.00090313
Loading maneuver chart data...
Computing Atmospheric mass density...
Loading historical data...
Loading historical data...
Loading historical data...
Loading historical data...
Loading historical data...
Loading historical data...
Loading historical data...

Documentation

Showing up to 5 results
|